sat.trackr.live / text

‹ back to catalog

STARLINK-5149

NORAD 53981 · 2022-125T

PAYLOAD ACTIVE UNKNOWN

§ Identity

Operator
Country
US
Launch date
2022-10-05
Launch site
AFWTR
Launch vehicle
Mass (kg)
RCS (m²)

Purposes: comms

External: N2YO · Heavens-Above · Gunter

§ Orbital elements

Epoch: 2026-09-20T14:24:48.549888Z

Period
94.01 min
Inclination
53.1616°
Eccentricity
0.0000662
Mean motion
15.31705201 rev/d
Perigee alt
470.3 km
Apogee alt
471.2 km
Semi-major
6,848.9 km
B*
6.7884e-5
RAAN
36.8649°
Arg perigee
96.7721°
Mean anomaly
263.3355°
Rev number
21,919

§ Raw data

STARLINK-51491 53981U 22125T   26263.60056192  .00001743  00000+0  67884-4 0  99972 53981  53.1616  36.8649 0000662  96.7721 263.3355 15.31705201219196

JSON: /api/v1/satellites/53981 · /tle

For live sub-satellite position, see the globe view (requires WebGL).

§ Visibility from observer

Set your observer location to see the next 7 days of passes ≥ 10°. The values pass through the URL so the page stays shareable.

No JS? Fill the form by hand. The geolocation button needs JavaScript.